TimeMST,TemperatureF,Dew PointF,Humidity,Sea Level PressureIn,VisibilityMPH,Wind Direction,Wind SpeedMPH,Gust SpeedMPH,PrecipitationIn,Events,Conditions,WindDirDegrees,DateUTC
12:53 AM,30.0,24.1,79,29.97,10.0,Calm,Calm,-,N/A,,Clear,0,2012-11-07 07:53:00
1:53 AM,34.0,27.0,75,29.94,10.0,SE,8.1,-,N/A,,Clear,140,2012-11-07 08:53:00
2:53 AM,32.0,26.1,79,29.94,10.0,Variable,3.5,-,N/A,,Clear,0,2012-11-07 09:53:00
3:53 AM,30.9,25.0,79,29.92,10.0,Variable,4.6,-,N/A,,Clear,0,2012-11-07 10:53:00
4:53 AM,28.0,23.0,81,29.93,10.0,Variable,3.5,-,N/A,,Clear,0,2012-11-07 11:53:00
5:53 AM,27.0,21.9,81,29.96,10.0,Calm,Calm,-,N/A,,Clear,0,2012-11-07 12:53:00
6:53 AM,27.0,21.9,81,29.96,10.0,Calm,Calm,-,N/A,,Clear,0,2012-11-07 13:53:00
7:53 AM,28.9,24.1,82,29.96,10.0,Calm,Calm,-,N/A,,Mostly Cloudy,0,2012-11-07 14:53:00
8:53 AM,33.1,26.1,75,29.94,9.0,NNW,3.5,-,N/A,,Mostly Cloudy,330,2012-11-07 15:53:00
9:53 AM,48.9,30.0,48,29.85,10.0,Calm,Calm,-,N/A,,Scattered Clouds,0,2012-11-07 16:53:00
10:53 AM,57.9,28.9,33,29.81,10.0,WSW,9.2,26.5,N/A,,Overcast,250,2012-11-07 17:53:00
11:53 AM,59.0,28.9,32,29.78,10.0,WSW,13.8,23.0,N/A,,Overcast,250,2012-11-07 18:53:00
12:53 PM,57.9,32.0,37,29.80,10.0,WSW,9.2,26.5,N/A,,Mostly Cloudy,240,2012-11-07 19:53:00
1:53 PM,59.0,30.9,35,29.77,10.0,WNW,17.3,28.8,N/A,,Mostly Cloudy,290,2012-11-07 20:53:00
2:07 PM,53.6,33.8,47,29.83,10.0,WNW,15.0,26.5,N/A,,Overcast,300,2012-11-07 21:07:00
2:53 PM,55.0,30.9,40,29.79,10.0,West,10.4,20.7,N/A,,Overcast,270,2012-11-07 21:53:00
3:00 PM,53.6,33.8,47,29.82,1.0,WNW,12.7,20.7,N/A,,Haze,300,2012-11-07 22:00:00
3:05 PM,53.6,33.8,47,29.83,5.0,WNW,16.1,23.0,N/A,,Haze,290,2012-11-07 22:05:00
3:10 PM,53.6,33.8,47,29.83,1.5,WNW,13.8,23.0,N/A,,Haze,290,2012-11-07 22:10:00
3:28 PM,51.8,33.8,50,29.85,10.0,WNW,12.7,-,N/A,,Mostly Cloudy,300,2012-11-07 22:28:00
3:53 PM,48.2,33.8,58,29.86,10.0,NW,12.7,-,N/A,,Mostly Cloudy,320,2012-11-07 22:53:00
4:53 PM,43.0,33.1,68,29.94,10.0,NNW,12.7,-,N/A,,Overcast,330,2012-11-07 23:53:00
5:53 PM,39.9,30.9,70,29.99,10.0,NNW,10.4,-,0.00,,Overcast,330,2012-11-08 00:53:00
6:53 PM,37.9,30.0,73,30.02,10.0,WNW,10.4,-,0.00,,Overcast,290,2012-11-08 01:53:00
7:53 PM,37.0,26.1,65,30.03,10.0,WNW,6.9,-,N/A,,Overcast,290,2012-11-08 02:53:00
8:53 PM,36.0,24.1,62,30.02,10.0,West,8.1,-,N/A,,Overcast,280,2012-11-08 03:53:00
9:53 PM,34.0,25.0,70,29.96,10.0,NW,8.1,-,N/A,,Overcast,310,2012-11-08 04:53:00
10:53 PM,32.0,24.1,73,29.94,10.0,ESE,5.8,-,N/A,,Scattered Clouds,110,2012-11-08 05:53:00
11:53 PM,28.9,23.0,78,29.93,10.0,Calm,Calm,-,N/A,,Clear,0,2012-11-08 06:53:00